Year,Month,Day,Hour,Minute,Value (Times are PST for temperature in C)
2020,04,26,06,59,7.40
2020,04,26,07,00,7.40
2020,04,26,07,01,7.40
2020,04,26,07,02,7.40
2020,04,26,07,03,7.50
2020,04,26,07,04,7.50
2020,04,26,07,05,7.60
2020,04,26,07,06,7.60
2020,04,26,07,07,7.60
2020,04,26,07,08,7.70
2020,04,26,07,09,7.70
2020,04,26,07,10,7.70
2020,04,26,07,11,7.70
2020,04,26,07,12,7.80
2020,04,26,07,13,7.80
2020,04,26,07,14,7.80
2020,04,26,07,15,7.80
2020,04,26,07,16,7.80
2020,04,26,07,17,7.90
2020,04,26,07,18,7.90
2020,04,26,07,19,7.90
2020,04,26,07,20,7.90
2020,04,26,07,21,7.90
2020,04,26,07,22,7.90
2020,04,26,07,23,7.90
2020,04,26,07,24,8.00
2020,04,26,07,25,8.00
2020,04,26,07,26,8.00
2020,04,26,07,27,8.10
2020,04,26,07,28,8.10
2020,04,26,07,29,8.10
2020,04,26,07,30,8.10
2020,04,26,07,31,8.00
2020,04,26,07,32,7.90
2020,04,26,07,33,7.90
2020,04,26,07,34,7.90
2020,04,26,07,35,7.90
2020,04,26,07,36,7.90
2020,04,26,07,37,7.90
2020,04,26,07,38,8.00
2020,04,26,07,39,8.00
2020,04,26,07,40,8.10
2020,04,26,07,41,8.10
2020,04,26,07,42,8.20
2020,04,26,07,43,8.20
2020,04,26,07,44,8.20
2020,04,26,07,45,8.20
2020,04,26,07,46,8.30
2020,04,26,07,47,8.30
2020,04,26,07,48,8.30
2020,04,26,07,49,8.30
2020,04,26,07,50,8.40
2020,04,26,07,51,8.40
2020,04,26,07,52,8.40
2020,04,26,07,53,8.40
2020,04,26,07,54,8.40
2020,04,26,07,55,8.40
2020,04,26,07,56,8.40
2020,04,26,07,57,8.40
2020,04,26,07,58,8.40
2020,04,26,07,59,8.40
2020,04,26,08,00,8.40
2020,04,26,08,01,8.40
2020,04,26,08,02,8.30
2020,04,26,08,03,8.30
2020,04,26,08,04,8.30
2020,04,26,08,05,8.30
2020,04,26,08,06,8.30
2020,04,26,08,07,8.30
2020,04,26,08,08,8.30
2020,04,26,08,09,8.30
2020,04,26,08,10,8.40
2020,04,26,08,11,8.40
2020,04,26,08,12,8.40
2020,04,26,08,13,8.40
2020,04,26,08,14,8.40
2020,04,26,08,15,8.50
2020,04,26,08,16,8.50
2020,04,26,08,17,8.50
2020,04,26,08,18,8.50
2020,04,26,08,19,8.50
2020,04,26,08,20,8.60
2020,04,26,08,21,8.60
2020,04,26,08,22,8.60
2020,04,26,08,23,8.60
2020,04,26,08,24,8.60
2020,04,26,08,25,8.60
2020,04,26,08,26,8.60
2020,04,26,08,27,8.60
2020,04,26,08,28,8.70
2020,04,26,08,29,8.70
2020,04,26,08,30,8.70
2020,04,26,08,31,8.70
2020,04,26,08,32,8.80
2020,04,26,08,33,8.80
2020,04,26,08,34,8.80
2020,04,26,08,35,8.80
2020,04,26,08,36,8.90
2020,04,26,08,37,8.90
2020,04,26,08,38,8.90
2020,04,26,08,39,8.90
2020,04,26,08,40,8.90
2020,04,26,08,41,8.80
2020,04,26,08,42,8.80
2020,04,26,08,43,8.80
2020,04,26,08,44,8.80
2020,04,26,08,45,8.80
2020,04,26,08,46,8.80
2020,04,26,08,47,8.90
2020,04,26,08,48,8.90
2020,04,26,08,49,8.90
2020,04,26,08,50,9.00
2020,04,26,08,51,9.00
2020,04,26,08,52,9.10
2020,04,26,08,53,9.20
2020,04,26,08,54,9.20
2020,04,26,08,55,9.30
2020,04,26,08,56,9.30
2020,04,26,08,57,9.40
2020,04,26,08,58,9.40
2020,04,26,08,59,9.40
2020,04,26,09,00,9.50
2020,04,26,09,01,9.50
2020,04,26,09,02,9.60
2020,04,26,09,03,9.60
2020,04,26,09,04,9.60
2020,04,26,09,05,9.60
2020,04,26,09,06,9.70
2020,04,26,09,07,9.80
2020,04,26,09,08,9.80
2020,04,26,09,09,9.90
2020,04,26,09,10,10.00
2020,04,26,09,11,10.10
2020,04,26,09,12,10.10
2020,04,26,09,13,10.20
2020,04,26,09,14,10.20
2020,04,26,09,15,10.20
2020,04,26,09,16,10.20
2020,04,26,09,17,10.20
2020,04,26,09,18,10.30
2020,04,26,09,19,10.30
2020,04,26,09,20,10.30
2020,04,26,09,21,10.40
2020,04,26,09,22,10.40
2020,04,26,09,23,10.40
2020,04,26,09,24,10.40
2020,04,26,09,25,10.40
2020,04,26,09,26,10.50
2020,04,26,09,27,10.50
2020,04,26,09,28,10.60
2020,04,26,09,29,10.60
2020,04,26,09,30,10.60
2020,04,26,09,31,10.70
2020,04,26,09,32,10.80
2020,04,26,09,33,10.90
2020,04,26,09,34,10.90
2020,04,26,09,35,10.90
2020,04,26,09,36,10.90
2020,04,26,09,37,10.90
2020,04,26,09,38,10.90
2020,04,26,09,39,10.90
2020,04,26,09,40,10.90
2020,04,26,09,41,10.90
2020,04,26,09,42,10.80
2020,04,26,09,43,10.80
2020,04,26,09,44,10.80
2020,04,26,09,45,10.80
2020,04,26,09,46,10.80
2020,04,26,09,47,10.90
2020,04,26,09,48,10.90
2020,04,26,09,49,11.00
2020,04,26,09,50,11.00
2020,04,26,09,51,11.10
2020,04,26,09,52,11.10
2020,04,26,09,53,11.20
2020,04,26,09,54,11.20
2020,04,26,09,55,11.30
2020,04,26,09,56,11.30
2020,04,26,09,57,11.30
2020,04,26,09,58,11.30
2020,04,26,09,59,11.30
2020,04,26,10,00,11.30
2020,04,26,10,01,11.30
2020,04,26,10,02,11.30
2020,04,26,10,03,11.30
2020,04,26,10,04,11.30
2020,04,26,10,05,11.30
2020,04,26,10,06,11.30
2020,04,26,10,07,11.30
2020,04,26,10,08,11.30
2020,04,26,10,09,11.40
2020,04,26,10,10,11.40
2020,04,26,10,11,11.40
2020,04,26,10,12,11.40
2020,04,26,10,13,11.40
2020,04,26,10,14,11.40
2020,04,26,10,15,11.40
2020,04,26,10,16,11.40
2020,04,26,10,17,11.40
2020,04,26,10,18,11.40
2020,04,26,10,19,11.40
2020,04,26,10,20,11.40
2020,04,26,10,21,11.50
2020,04,26,10,22,11.50
2020,04,26,10,23,11.50
2020,04,26,10,24,11.50
2020,04,26,10,25,11.50
2020,04,26,10,26,11.50
2020,04,26,10,27,11.50
2020,04,26,10,28,11.40
2020,04,26,10,29,11.50
2020,04,26,10,30,11.50
2020,04,26,10,31,11.50
2020,04,26,10,32,11.50
2020,04,26,10,33,11.60
2020,04,26,10,34,11.60
2020,04,26,10,35,11.60
2020,04,26,10,36,11.60
2020,04,26,10,37,11.60
2020,04,26,10,38,11.60
2020,04,26,10,39,11.60
2020,04,26,10,40,11.60
2020,04,26,10,41,11.60
2020,04,26,10,42,11.60
2020,04,26,10,43,11.60
2020,04,26,10,44,11.50
2020,04,26,10,45,11.50
2020,04,26,10,46,11.50
2020,04,26,10,47,11.50
2020,04,26,10,48,11.50
2020,04,26,10,49,11.60
2020,04,26,10,50,11.60
2020,04,26,10,51,11.60
2020,04,26,10,52,11.60
2020,04,26,10,53,11.60
2020,04,26,10,54,11.70
2020,04,26,10,55,11.70
2020,04,26,10,56,11.70
2020,04,26,10,57,11.80
2020,04,26,10,58,11.80
2020,04,26,10,59,11.80
2020,04,26,11,00,11.80
2020,04,26,11,01,11.80
2020,04,26,11,02,11.90
2020,04,26,11,03,11.90
2020,04,26,11,04,11.90
2020,04,26,11,05,11.90
2020,04,26,11,06,11.90
2020,04,26,11,07,11.90
2020,04,26,11,08,11.90
2020,04,26,11,09,11.90
2020,04,26,11,10,11.80
2020,04,26,11,11,11.80
2020,04,26,11,12,11.90
2020,04,26,11,13,11.90
2020,04,26,11,14,11.90
2020,04,26,11,15,12.00
2020,04,26,11,16,12.00
2020,04,26,11,17,12.00
2020,04,26,11,18,12.10
2020,04,26,11,19,12.20
2020,04,26,11,20,12.20
2020,04,26,11,21,12.20
2020,04,26,11,22,12.10
2020,04,26,11,23,12.10
2020,04,26,11,24,12.00
2020,04,26,11,25,12.10
2020,04,26,11,26,12.10
2020,04,26,11,27,12.10
2020,04,26,11,28,12.00
2020,04,26,11,29,12.10
2020,04,26,11,30,12.10
2020,04,26,11,31,12.10
2020,04,26,11,32,12.00
2020,04,26,11,33,12.00
2020,04,26,11,34,12.00
2020,04,26,11,35,12.00
2020,04,26,11,36,12.00
2020,04,26,11,37,12.00
2020,04,26,11,38,12.00
2020,04,26,11,39,12.00
2020,04,26,11,40,12.00
2020,04,26,11,41,12.00
2020,04,26,11,42,12.00
2020,04,26,11,43,12.10
2020,04,26,11,44,12.20
2020,04,26,11,45,12.30
2020,04,26,11,46,12.30
2020,04,26,11,47,12.40
2020,04,26,11,48,12.50
2020,04,26,11,49,12.60
2020,04,26,11,50,12.70
2020,04,26,11,51,12.70
2020,04,26,11,52,12.60
2020,04,26,11,53,12.50
2020,04,26,11,54,12.40
2020,04,26,11,55,12.30
2020,04,26,11,56,12.30
2020,04,26,11,57,12.20
2020,04,26,11,58,12.20
2020,04,26,11,59,12.10
2020,04,26,12,00,12.20
2020,04,26,12,01,12.20
2020,04,26,12,02,12.20
2020,04,26,12,03,12.30
2020,04,26,12,04,12.30
2020,04,26,12,05,12.30
2020,04,26,12,06,12.20
2020,04,26,12,07,12.20
2020,04,26,12,08,12.20
2020,04,26,12,09,12.20
2020,04,26,12,10,12.30
2020,04,26,12,11,12.30
2020,04,26,12,12,12.30
2020,04,26,12,13,12.30
2020,04,26,12,14,12.30
2020,04,26,12,15,12.30
2020,04,26,12,16,12.30
2020,04,26,12,17,12.30
2020,04,26,12,18,12.40
2020,04,26,12,19,12.40
2020,04,26,12,20,12.50
2020,04,26,12,21,12.60
2020,04,26,12,22,12.70
2020,04,26,12,23,12.70
2020,04,26,12,24,12.70
2020,04,26,12,25,12.80
2020,04,26,12,26,12.80
2020,04,26,12,27,12.90
2020,04,26,12,28,12.90
2020,04,26,12,29,12.90
2020,04,26,12,30,12.80
2020,04,26,12,31,12.80
2020,04,26,12,32,12.70
2020,04,26,12,33,12.70
2020,04,26,12,34,12.60
2020,04,26,12,35,12.60
2020,04,26,12,36,12.60
2020,04,26,12,37,12.60
2020,04,26,12,38,12.50
2020,04,26,12,39,12.40
2020,04,26,12,40,12.30
2020,04,26,12,41,12.20
2020,04,26,12,42,12.20
2020,04,26,12,43,12.30
2020,04,26,12,44,12.30
2020,04,26,12,45,12.30
2020,04,26,12,46,12.30
2020,04,26,12,47,12.30
2020,04,26,12,48,12.30
2020,04,26,12,49,12.40
2020,04,26,12,50,12.50
2020,04,26,12,51,12.60
2020,04,26,12,52,12.70
2020,04,26,12,53,12.80
2020,04,26,12,54,12.70
2020,04,26,12,55,12.50
2020,04,26,12,56,12.40
2020,04,26,12,57,12.30
2020,04,26,12,58,12.30
2020,04,26,12,59,12.30
2020,04,26,13,00,12.40
2020,04,26,13,01,12.40
2020,04,26,13,02,12.40
2020,04,26,13,03,12.40
2020,04,26,13,04,12.40
2020,04,26,13,05,12.50
2020,04,26,13,06,12.60
2020,04,26,13,07,12.70
2020,04,26,13,08,12.60
2020,04,26,13,09,12.60
2020,04,26,13,10,12.50
2020,04,26,13,11,12.50
2020,04,26,13,12,12.40
2020,04,26,13,13,12.40
2020,04,26,13,14,12.30
2020,04,26,13,15,12.40
2020,04,26,13,16,12.40
2020,04,26,13,17,12.40
2020,04,26,13,18,12.40
2020,04,26,13,19,12.40
2020,04,26,13,20,12.40
2020,04,26,13,21,12.40
2020,04,26,13,22,12.40
2020,04,26,13,23,12.50
2020,04,26,13,24,12.60
2020,04,26,13,25,12.60
2020,04,26,13,26,12.70
2020,04,26,13,27,12.70
2020,04,26,13,28,12.70
2020,04,26,13,29,12.70
2020,04,26,13,30,12.80
2020,04,26,13,31,12.80
2020,04,26,13,32,12.80
2020,04,26,13,33,12.80
2020,04,26,13,34,12.90
2020,04,26,13,35,13.00
2020,04,26,13,36,13.10
2020,04,26,13,37,13.00
2020,04,26,13,38,12.90
2020,04,26,13,39,12.90
2020,04,26,13,40,12.80
2020,04,26,13,41,12.80
2020,04,26,13,42,12.80
2020,04,26,13,43,12.90
2020,04,26,13,44,13.00
2020,04,26,13,45,13.10
2020,04,26,13,46,13.10
2020,04,26,13,47,13.10
2020,04,26,13,48,13.10
2020,04,26,13,49,13.20
2020,04,26,13,50,13.20
2020,04,26,13,51,13.10
2020,04,26,13,52,13.00
2020,04,26,13,53,12.90
2020,04,26,13,54,12.90
2020,04,26,13,55,12.90
2020,04,26,13,56,12.90
2020,04,26,13,57,12.90
2020,04,26,13,58,12.90
2020,04,26,13,59,12.90
2020,04,26,14,00,12.80
2020,04,26,14,01,12.80
2020,04,26,14,02,12.90
2020,04,26,14,03,12.90
2020,04,26,14,04,12.80
2020,04,26,14,05,12.80
2020,04,26,14,06,12.90
2020,04,26,14,07,12.90
2020,04,26,14,08,12.90
2020,04,26,14,09,12.90
2020,04,26,14,10,12.90
2020,04,26,14,11,12.80
2020,04,26,14,12,12.80
2020,04,26,14,13,12.70
2020,04,26,14,14,12.70
2020,04,26,14,15,12.70
2020,04,26,14,16,12.70
2020,04,26,14,17,12.60
2020,04,26,14,18,12.60
2020,04,26,14,19,12.60
2020,04,26,14,20,12.60
2020,04,26,14,21,12.60
2020,04,26,14,22,12.60
2020,04,26,14,23,12.70
2020,04,26,14,24,12.70
2020,04,26,14,25,12.80
2020,04,26,14,26,12.80
2020,04,26,14,27,12.80
2020,04,26,14,28,12.80
2020,04,26,14,29,12.90
2020,04,26,14,30,12.90
2020,04,26,14,31,12.90
2020,04,26,14,32,12.90
2020,04,26,14,33,13.00
2020,04,26,14,34,13.00
2020,04,26,14,35,13.00
2020,04,26,14,36,13.00
2020,04,26,14,37,13.00
2020,04,26,14,38,13.00
2020,04,26,14,39,13.00
2020,04,26,14,40,13.00
2020,04,26,14,41,13.00
2020,04,26,14,42,12.90
2020,04,26,14,43,12.90
2020,04,26,14,44,12.90
2020,04,26,14,45,12.90
2020,04,26,14,46,12.90
2020,04,26,14,47,12.90
2020,04,26,14,48,12.90
2020,04,26,14,49,12.90
2020,04,26,14,50,13.00
2020,04,26,14,51,12.90
2020,04,26,14,52,12.90
2020,04,26,14,53,13.00
2020,04,26,14,54,13.00
2020,04,26,14,55,13.00
2020,04,26,14,56,13.10
2020,04,26,14,57,13.10
2020,04,26,14,58,13.10
2020,04,26,14,59,13.10
2020,04,26,15,00,13.00
2020,04,26,15,01,12.90
2020,04,26,15,02,12.90
2020,04,26,15,03,12.90
2020,04,26,15,04,12.90
2020,04,26,15,05,13.00
2020,04,26,15,06,13.00
2020,04,26,15,07,12.90
2020,04,26,15,08,12.90
2020,04,26,15,09,12.90
2020,04,26,15,10,12.90
2020,04,26,15,11,12.80
2020,04,26,15,12,12.80
2020,04,26,15,13,12.80
2020,04,26,15,14,12.80
2020,04,26,15,15,12.90
2020,04,26,15,16,12.90
2020,04,26,15,17,12.90
2020,04,26,15,18,12.80
2020,04,26,15,19,12.80
2020,04,26,15,20,12.80
2020,04,26,15,21,12.90
2020,04,26,15,22,12.90
2020,04,26,15,23,12.90
2020,04,26,15,24,12.90
2020,04,26,15,25,13.00
2020,04,26,15,26,13.00
2020,04,26,15,27,13.00
2020,04,26,15,28,13.00
2020,04,26,15,29,13.10
2020,04,26,15,30,13.10
2020,04,26,15,31,13.00
2020,04,26,15,32,13.00
2020,04,26,15,33,13.00
2020,04,26,15,34,13.00
2020,04,26,15,35,13.00
2020,04,26,15,36,13.00
2020,04,26,15,37,13.00
2020,04,26,15,38,13.00
2020,04,26,15,39,13.00
2020,04,26,15,40,13.00
2020,04,26,15,41,12.90
2020,04,26,15,42,12.90
2020,04,26,15,43,12.90
2020,04,26,15,44,12.90
2020,04,26,15,45,13.00
2020,04,26,15,46,13.00
2020,04,26,15,47,13.00
2020,04,26,15,48,13.00
2020,04,26,15,49,12.90
2020,04,26,15,50,12.90
2020,04,26,15,51,12.90
2020,04,26,15,52,13.00
2020,04,26,15,53,13.00
2020,04,26,15,54,13.00
2020,04,26,15,55,13.10
2020,04,26,15,56,13.10
2020,04,26,15,57,13.10
2020,04,26,15,58,13.20
2020,04,26,15,59,13.20
2020,04,26,16,00,13.20
2020,04,26,16,01,13.20
2020,04,26,16,02,13.30
2020,04,26,16,03,13.30
2020,04,26,16,04,13.40
2020,04,26,16,05,13.40
2020,04,26,16,06,13.40
2020,04,26,16,07,13.50
2020,04,26,16,08,13.50
2020,04,26,16,09,13.50
2020,04,26,16,10,13.40
2020,04,26,16,11,13.50
2020,04,26,16,12,13.50
2020,04,26,16,13,13.50
2020,04,26,16,14,13.60
2020,04,26,16,15,13.60
2020,04,26,16,16,13.70
2020,04,26,16,17,13.70
2020,04,26,16,18,13.70
2020,04,26,16,19,13.60
2020,04,26,16,20,13.60
2020,04,26,16,21,13.60
2020,04,26,16,22,13.60
2020,04,26,16,23,13.70
2020,04,26,16,24,13.70
2020,04,26,16,25,13.70
2020,04,26,16,26,13.70
2020,04,26,16,27,13.70
2020,04,26,16,28,13.70
2020,04,26,16,29,13.60
2020,04,26,16,30,13.60
2020,04,26,16,31,13.60
2020,04,26,16,32,13.60
2020,04,26,16,33,13.60
2020,04,26,16,34,13.60
2020,04,26,16,35,13.70
2020,04,26,16,36,13.70
2020,04,26,16,37,13.70
2020,04,26,16,38,13.70
2020,04,26,16,39,13.70
2020,04,26,16,40,13.70
2020,04,26,16,41,13.70
2020,04,26,16,42,13.70
2020,04,26,16,43,13.70
2020,04,26,16,44,13.70
2020,04,26,16,45,13.70
2020,04,26,16,46,13.70
2020,04,26,16,47,13.70
2020,04,26,16,48,13.70
2020,04,26,16,49,13.70
2020,04,26,16,50,13.60
2020,04,26,16,51,13.60
2020,04,26,16,52,13.60
2020,04,26,16,53,13.60
2020,04,26,16,54,13.60
2020,04,26,16,55,13.60
2020,04,26,16,56,13.60
2020,04,26,16,57,13.60
2020,04,26,16,58,13.60
2020,04,26,16,59,13.60
2020,04,26,17,00,13.60
2020,04,26,17,01,13.60
2020,04,26,17,02,13.60
2020,04,26,17,03,13.60
2020,04,26,17,04,13.60
2020,04,26,17,05,13.60
2020,04,26,17,06,13.60
2020,04,26,17,07,13.60
2020,04,26,17,08,13.60
2020,04,26,17,09,13.60
2020,04,26,17,10,13.60
2020,04,26,17,11,13.60
2020,04,26,17,12,13.60
2020,04,26,17,13,13.60
2020,04,26,17,14,13.50
2020,04,26,17,15,13.50
2020,04,26,17,16,13.50
2020,04,26,17,17,13.50
2020,04,26,17,18,13.40
2020,04,26,17,19,13.40
2020,04,26,17,20,13.40
2020,04,26,17,21,13.40
2020,04,26,17,22,13.40
2020,04,26,17,23,13.40
2020,04,26,17,24,13.40
2020,04,26,17,25,13.40
2020,04,26,17,26,13.40
2020,04,26,17,27,13.40
2020,04,26,17,28,13.40
2020,04,26,17,29,13.40
2020,04,26,17,30,13.40
2020,04,26,17,31,13.40
2020,04,26,17,32,13.40
2020,04,26,17,33,13.40
2020,04,26,17,34,13.40
2020,04,26,17,35,13.40
2020,04,26,17,36,13.50
2020,04,26,17,37,13.50
2020,04,26,17,38,13.50
2020,04,26,17,39,13.50
2020,04,26,17,40,13.50
2020,04,26,17,41,13.50
2020,04,26,17,42,13.50
2020,04,26,17,43,13.50
2020,04,26,17,44,13.50
2020,04,26,17,45,13.50
2020,04,26,17,46,13.50
2020,04,26,17,47,13.50
2020,04,26,17,48,13.50
2020,04,26,17,49,13.50
2020,04,26,17,50,13.50
2020,04,26,17,51,13.50
2020,04,26,17,52,13.50
2020,04,26,17,53,13.50
2020,04,26,17,54,13.50
2020,04,26,17,55,13.50
2020,04,26,17,56,13.50
2020,04,26,17,57,13.50
2020,04,26,17,58,13.50
2020,04,26,17,59,13.50
2020,04,26,18,00,13.50
2020,04,26,18,01,13.60
2020,04,26,18,02,13.50
2020,04,26,18,03,13.50
2020,04,26,18,04,13.50
2020,04,26,18,05,13.50
2020,04,26,18,06,13.50
2020,04,26,18,07,13.50
2020,04,26,18,08,13.60
2020,04,26,18,09,13.60
2020,04,26,18,10,13.60
2020,04,26,18,11,13.60
2020,04,26,18,12,13.60
2020,04,26,18,13,13.60
2020,04,26,18,14,13.60
2020,04,26,18,15,13.60
2020,04,26,18,16,13.60
2020,04,26,18,17,13.60
2020,04,26,18,18,13.60
2020,04,26,18,19,13.60
2020,04,26,18,20,13.60
2020,04,26,18,21,13.60
2020,04,26,18,22,13.60
2020,04,26,18,23,13.60
2020,04,26,18,24,13.60
2020,04,26,18,25,13.60
2020,04,26,18,26,13.50
2020,04,26,18,27,13.50
2020,04,26,18,28,13.50
2020,04,26,18,29,13.50
2020,04,26,18,30,13.50
2020,04,26,18,31,13.50
2020,04,26,18,32,13.50
2020,04,26,18,33,13.60
2020,04,26,18,34,13.50
2020,04,26,18,35,13.50
2020,04,26,18,36,13.50
2020,04,26,18,37,13.50
2020,04,26,18,38,13.50
2020,04,26,18,39,13.50
2020,04,26,18,40,13.50
2020,04,26,18,41,13.50
2020,04,26,18,42,13.40
2020,04,26,18,43,13.40
2020,04,26,18,44,13.40
2020,04,26,18,45,13.40
2020,04,26,18,46,13.40
2020,04,26,18,47,13.40
2020,04,26,18,48,13.40
2020,04,26,18,49,13.40
2020,04,26,18,50,13.40
2020,04,26,18,51,13.40
2020,04,26,18,52,13.40
